(41464) = 2000 OL22 = 2002 CP107

Discovered at Socorro on 2000-07-31 by LINEAR.

Orbit

Orbit type: Mars-crosser

Note: WebGL enabled browser required.

epoch2024-03-31.0
epoch JD2460400.5
perihelion date2023-11-19.93756
perihelion JD2460268.43756
argument of perihelion (°)138.79227
ascending node (°)157.72907
inclination (°)25.09709
eccentricity0.1273086
perihelion distance (AU)1.6553853
Tisserand w.r.t. Jupiter3.8
ΔV w.r.t. Earth (km/sec)11.2
semimajor axis (AU)1.8968736
mean anomaly (°)49.82251
mean daily motion (°/day)0.37726480
aphelion distance (AU)2.138
period (years)2.61
P-vector [x]0.47010260
P-vector [y]-0.87927689
P-vector [z]-0.07665309
Q-vector [x]0.86784990
Q-vector [y]0.47631097
Q-vector [z]-0.14129544
absolute magnitude16.16
phase slope0.15
uncertainty0
referenceMPEC 2024-E179
observations used1534
oppositions17
arc length (days)11301
first opposition used1992
last opposition used2023
residual rms (arc-secs)0.63
perturbers coarse indicatorM-v
perturbers precise indicator003Ek
first observation date used1992-07-28.0
last observation date used2023-07-07.0
computer nameMPCLINUX
JD of orbit computation2456612.638924
perihelion JD uncertainty (days)6.0754E-05
argument of perihelion uncertainty (°)2.6843E-05
ascending node uncertainty (°)9.1373E-06
inclination uncertainty (°)7.5543E-06
eccentricity uncertainty 4.9292E-08
perihelion distance uncertainty (AU)9.3076E-08
Minimum Orbit Intersection Distances (in AU)
for orbit epoch: 2460400.5, reference: E2024-EH9
Mercury1.25919
Venus0.96398
Earth0.67763
Mars0.32457
Jupiter3.21027
Saturn7.06761
Uranus16.3743
Neptune28.0218

Observations

1548 total observations over interval: 1992 07 28.29375 – 2023 07 07.173647
These data are available for download (format description).

Date (UT) J2000 RA J2000 Dec Magn Location Ref
1992 07 28.29375 20 08 22.72 +14 09 36.1   261 – Palomar Mountain-DSS MPS 54581
1992 07 28.32847 20 08 20.96 +14 08 40.9   261 – Palomar Mountain-DSS MPS 54581
1994 03 05.22917 09 41 43.56 +10 03 32.7   261 – Palomar Mountain-DSS MPS 54581
1994 03 05.26597 09 41 41.44 +10 04 19.4   261 – Palomar Mountain-DSS MPS 54581
2000 07 31.36659 00 09 02.32 +04 25 21.2 18.1   704 – Lincoln Laboratory ETS, New Mexico MPS 17844
2000 07 31.37861 00 09 02.82 +04 25 08.2 18.4   704 – Lincoln Laboratory ETS, New Mexico MPS 17844
2000 07 31.39064 00 09 03.26 +04 24 55.2 18.4   704 – Lincoln Laboratory ETS, New Mexico MPS 17844
2000 07 31.40266 00 09 03.73 +04 24 41.9 18.7   704 – Lincoln Laboratory ETS, New Mexico MPS 17844
2000 07 31.41471 00 09 04.22 +04 24 27.9 18.9   704 – Lincoln Laboratory ETS, New Mexico MPS 17844
2000 08 03.36972 00 11 00.19 +03 27 58.5 18.2   704 – Lincoln Laboratory ETS, New Mexico MPS 17844
2000 08 03.38388 00 11 00.69 +03 27 41.7 18.5   704 – Lincoln Laboratory ETS, New Mexico MPS 17844
2000 08 03.39798 00 11 01.18 +03 27 24.9 18.2   704 – Lincoln Laboratory ETS, New Mexico MPS 17844
2000 08 03.41212 00 11 01.62 +03 27 08.0 18.3   704 – Lincoln Laboratory ETS, New Mexico MPS 17844
2000 08 03.42624 00 11 02.12 +03 26 50.8 18.3   704 – Lincoln Laboratory ETS, New Mexico MPS 17844
2000 08 28.31402 00 14 54.97 -07 44 03.8 17.6   704 – Lincoln Laboratory ETS, New Mexico MPS 17844
2000 08 28.34110 00 14 54.36 -07 44 56.4 17.8   704 – Lincoln Laboratory ETS, New Mexico MPS 17844
2000 08 28.35469 00 14 54.08 -07 45 22.5 18.1   704 – Lincoln Laboratory ETS, New Mexico MPS 17844
2000 08 28.36819 00 14 53.78 -07 45 49.1 17.9   704 – Lincoln Laboratory ETS, New Mexico MPS 17844
2000 08 29.34647 00 14 35.43 -08 17 38.8 17.5   704 – Lincoln Laboratory ETS, New Mexico MPS 17844
2000 08 29.35989 00 14 35.08 -08 18 04.9 17.3   704 – Lincoln Laboratory ETS, New Mexico MPS 17844
2000 08 29.37332 00 14 34.79 -08 18 30.9 17.8   704 – Lincoln Laboratory ETS, New Mexico MPS 17844
2000 09 19.48242 00 02 07.54 -19 30 17.3 18.2   608 – Haleakala-AMOS MPS 19167
2000 09 19.49315 00 02 07.01 -19 30 35.1 18.1   608 – Haleakala-AMOS MPS 19167
2000 09 19.50402 00 02 06.48 -19 30 53.8 18.4   608 – Haleakala-AMOS MPS 19167
2000 09 20.26348 00 01 33.08 -19 52 07.8 17.3   704 – Lincoln Laboratory ETS, New Mexico MPS 19167
2000 09 20.26360 00 01 33.09 -19 52 08.1 17.2   704 – Lincoln Laboratory ETS, New Mexico MPS 19167
2000 09 20.27827 00 01 32.37 -19 52 32.9 18.1   704 – Lincoln Laboratory ETS, New Mexico MPS 19167
2000 09 20.27839 00 01 32.36 -19 52 33.0 18.0   704 – Lincoln Laboratory ETS, New Mexico MPS 19167
2000 09 20.29312 00 01 31.65 -19 52 57.2 18.0   704 – Lincoln Laboratory ETS, New Mexico MPS 19167
2000 09 20.29324 00 01 31.64 -19 52 57.1 17.7   704 – Lincoln Laboratory ETS, New Mexico MPS 19167
2000 09 20.30787 00 01 30.93 -19 53 22.4 18.0   704 – Lincoln Laboratory ETS, New Mexico MPS 19167
2000 09 20.30799 00 01 30.95 -19 53 21.7 17.9   704 – Lincoln Laboratory ETS, New Mexico MPS 19167
2000 09 20.32266 00 01 30.23 -19 53 46.4 17.9   704 – Lincoln Laboratory ETS, New Mexico MPS 19167
2000 09 20.32278 00 01 30.17 -19 53 46.2 18.1   704 – Lincoln Laboratory ETS, New Mexico MPS 19167
2000 09 29.19693 23 55 04.43 -23 33 17.8 17.1 R 699 – Lowell Observatory-LONEOS MPS 26650
2000 09 29.20621 23 55 04.05 -23 33 30.3   699 – Lowell Observatory-LONEOS MPS 26650
2000 09 29.21549 23 55 03.62 -23 33 42.0   699 – Lowell Observatory-LONEOS MPS 26650
2000 09 29.22477 23 55 03.19 -23 33 54.1   699 – Lowell Observatory-LONEOS MPS 26650
2000 09 30.23666 23 54 22.13 -23 55 19.3 17.3 R 699 – Lowell Observatory-LONEOS MPS 25127
2000 09 30.24707 23 54 21.72 -23 55 32.3   699 – Lowell Observatory-LONEOS MPS 25127
2000 09 30.25749 23 54 21.21 -23 55 45.4   699 – Lowell Observatory-LONEOS MPS 25127
2000 09 30.26792 23 54 20.79 -23 55 58.7   699 – Lowell Observatory-LONEOS MPS 25127
2002 02 07.39183 12 18 47.97 +02 38 41.0 19.1   704 – Lincoln Laboratory ETS, New Mexico MPS 50282
2002 02 07.40667 12 18 47.97 +02 38 55.7 19.2   704 – Lincoln Laboratory ETS, New Mexico MPS 50282
2002 02 07.42127 12 18 48.03 +02 39 10.3 19.0   704 – Lincoln Laboratory ETS, New Mexico MPS 50282
2002 02 07.43592 12 18 48.02 +02 39 24.1 19.2   704 – Lincoln Laboratory ETS, New Mexico MPS 50282
2002 02 07.45047 12 18 48.05 +02 39 39.0 19.4   704 – Lincoln Laboratory ETS, New Mexico MPS 50282
2002 02 10.44942 12 18 52.44 +03 31 13.5 19.2   704 – Lincoln Laboratory ETS, New Mexico MPS 50282
2002 02 10.46406 12 18 52.39 +03 31 28.7 19.4   704 – Lincoln Laboratory ETS, New Mexico MPS 50282
2002 02 10.47847 12 18 52.32 +03 31 44.5 19.2   704 – Lincoln Laboratory ETS, New Mexico MPS 50282
2002 02 10.49280 12 18 52.25 +03 31 59.4 19.2   704 – Lincoln Laboratory ETS, New Mexico MPS 50282
2002 02 10.50712 12 18 52.21 +03 32 14.4 19.1   704 – Lincoln Laboratory ETS, New Mexico MPS 50282
2002 02 12.45609 12 18 45.28 +04 07 53.6 18.6   704 – Lincoln Laboratory ETS, New Mexico MPS 51743
2002 02 12.47031 12 18 45.16 +04 08 09.3 19.0   704 – Lincoln Laboratory ETS, New Mexico MPS 51743
2002 02 12.48452 12 18 45.03 +04 08 25.5 19.1   704 – Lincoln Laboratory ETS, New Mexico MPS 51743
2002 02 12.49873 12 18 44.93 +04 08 41.1 19.3   704 – Lincoln Laboratory ETS, New Mexico MPS 51743
2002 02 12.51296 12 18 44.83 +04 08 56.8 18.9   704 – Lincoln Laboratory ETS, New Mexico MPS 51743
2002 03 09.37551 12 06 34.53 +13 35 17.8 17.6 R 699 – Lowell Observatory-LONEOS MPS 51743
2002 03 09.39512 12 06 33.48 +13 35 47.2   699 – Lowell Observatory-LONEOS MPS 51743
2002 03 09.41476 12 06 32.45 +13 36 17.3   699 – Lowell Observatory-LONEOS MPS 51743
2002 03 09.43444 12 06 31.42 +13 36 45.1   699 – Lowell Observatory-LONEOS MPS 51743
2002 03 11.46962 12 04 47.46 +14 27 30.1 17.8   644 – Palomar Mountain/NEAT MPS 51743
2002 03 11.48063 12 04 46.85 +14 27 46.4 17.8   644 – Palomar Mountain/NEAT MPS 51743
2002 03 11.49151 12 04 46.25 +14 28 02.6 17.9   644 – Palomar Mountain/NEAT MPS 51743
2002 03 19.35903 11 57 32.07 +17 39 02.4 17.8   704 – Lincoln Laboratory ETS, New Mexico MPS 51743
2002 03 19.37178 11 57 31.26 +17 39 19.2 17.9   704 – Lincoln Laboratory ETS, New Mexico MPS 51743
2002 03 19.38425 11 57 30.53 +17 39 36.6 18.0   704 – Lincoln Laboratory ETS, New Mexico MPS 51743
2002 03 19.41120 11 57 28.91 +17 40 14.7 18.2   704 – Lincoln Laboratory ETS, New Mexico MPS 51743
2002 03 20.35359 11 56 34.97 +18 02 08.9 17.8   704 – Lincoln Laboratory ETS, New Mexico MPS 51743
2002 03 20.36597 11 56 34.20 +18 02 26.0 18.1   704 – Lincoln Laboratory ETS, New Mexico MPS 51743
2002 03 20.37822 11 56 33.45 +18 02 42.9 18.2   704 – Lincoln Laboratory ETS, New Mexico MPS 51743
2002 03 20.39063 11 56 32.71 +18 03 00.3 18.0   704 – Lincoln Laboratory ETS, New Mexico MPS 51743
2002 03 20.40300 11 56 32.02 +18 03 17.1 17.9   704 – Lincoln Laboratory ETS, New Mexico MPS 51743
2002 03 20.42635 11 56 30.66 +18 03 49.5 17.8   644 – Palomar Mountain/NEAT MPS 51743
2002 03 20.43849 11 56 29.93 +18 04 06.3 18.0   644 – Palomar Mountain/NEAT MPS 51743
2002 03 20.45179 11 56 29.13 +18 04 24.7 18.0   644 – Palomar Mountain/NEAT MPS 51743
2002 03 31.42610 11 46 12.63 +21 54 05.5 18.2   644 – Palomar Mountain/NEAT MPS 54581
2002 03 31.43787 11 46 11.97 +21 54 18.5 18.3   644 – Palomar Mountain/NEAT MPS 54581
2002 03 31.44952 11 46 11.33 +21 54 31.1 18.3   644 – Palomar Mountain/NEAT MPS 54581
2002 04 01.38234 11 45 22.52 +22 11 31.3 18.2   644 – Palomar Mountain/NEAT MPS 54581
2002 04 01.39297 11 45 21.95 +22 11 42.8 18.2   644 – Palomar Mountain/NEAT MPS 54581
2002 04 01.40372 11 45 21.37 +22 11 54.2 18.3   644 – Palomar Mountain/NEAT MPS 54581
2003 12 16.27570 05 25 16.41 -20 19 21.6   704 – Lincoln Laboratory ETS, New Mexico MPS 406397
2004 01 15.29015 04 57 22.05 -14 40 43.3 19.4   644 – Palomar Mountain/NEAT MPS 96762
2004 01 15.30939 04 57 21.47 -14 40 24.1 19.1   644 – Palomar Mountain/NEAT MPS 96762
2004 01 15.33059 04 57 20.80 -14 40 03.5 19.3   644 – Palomar Mountain/NEAT MPS 96762
2005 06 07.33271 19 03 48.90 +26 10 43.0 17.9   704 – Lincoln Laboratory ETS, New Mexico MPS 136242
